CARBONITE 2 (43115 NORAD) Tracking and Keplerian Element Data

This shows tracking and keplerian element data for the satellite.

Feedback or suggestion? Click here.




ElementValue
Catalog43115
NameCARBONITE 2
Epoch Orbit436
Epoch Day40.87465118
Epoch Year2018
RAAN103.1055
Inclination97.5516
Eccentricity0.0010852
Argument of Perigee161.9877
Mean Anonmoly198.1745
Mean Motion15.21772828
Decay Rate4.06E-06
L11 43115U 18004E 18040.87465118 .00000406 00000-0 21049-4 0 9990
L22 43115 97.5516 103.1055 0010852 161.9877 198.1745 15.21772828 4360

Live tracking and technical data element details for CARBONITE 2 (NORAD 43115). CARBONITE 2 can be tracked NOW for your location showing map with azimuth and elevation plus other details from your city location.

Track the satellite on the map from your city or location and see movement details for azimuth, elevation, latitude, longitude, range, height, and movement on the map or in text.







IsCatalogInMostPopularTable: catalog: 43115, numindb: 156
Update: records affected: 1



GetName: 43115 CARBONITE 2

Hit Count: updated at: Wed, 14 Nov 2018 15:42:01 GMT